Voltar ao catálogo

ARIANE 5 DEB

SYLDA

AtivoHEO
NORAD 45028·DEBRIS·🇫🇷 France

Lançado Jan 16, 2020 de Guiana Space Centre

Loading…

Próximas Passagens (próximas 24 horas)

TLE

AtualizadoSource: Space-Track

Época: Sep 14, 2026, 14:56 UTC

1 45028U 20005C   26257.62259340  .00241713  00000-0  63438-2 0  9993
2 45028   6.1188  51.0338 4297844 180.4208 179.0658  6.96491020 92246

Acompanhe ARIANE 5 DEB em tempo real com AllMySat

Download on the App Store